STARLINK-37592, 69025

Orbit data source: Space-Track

STARLINK-37592, 69025 is a payload satellite owned by SpaceX/Seattle (US) in SSO that was launched on Wed, 06 May 2026 UTC via an FALCON 9 launch vehicle from the Air Force Western Test Range (AFWTR). Payload-class satellites include a variety of spacecraft equipped with specific instruments for various scientific and technological missions. These include communications satellites like Starlink; space stations such as the ISS; scientific satellites like the Hubble; Earth observation satellites from companies like Planet Labs, Umbra, and HawkEye 360; GPS; miniature CubeSats for education and research; and military/defense satellites.

Loading next visibility...
Identifier
69025, 2026-101A
Orbit
SSO
Country
Flag of USUS
Related business
Manufacturer
SpaceX/Seattle
Mission
Operational spacecraft
Bus & Motor
STARLINK V2MO, Unknown motor
Mass
575 kg wet, ~530 kg dry
Launch date (UTC)
2026-05-06 (1 month ago)
Launch vehicle
FALCON 9
Launch site
Air Force Western Test Range (AFWTR)
Object type
Payload
Rocket body
Debris
Shape & HBR
Unknown shape, 14.5 m
Radar Cross Section
Large (>1 m²)

Expand to show TLE details & history
Last TLE update: 12 hours ago

TLE from 12 hours ago
0 STARLINK-37592
1 69025U 26101A   26168.60964074  .00010844  00000-0  33775-3 0  9996
2 69025  97.2845  23.3918 0001383  79.7704 280.3695 15.33444732  6638
Epoch: 2026-06-17T14:37Z
TLE epoch observation values (Epoch: 2026-06-17T14:37:52.959Z)
Latitude
-0.00002°
Longitude
-101.94372°
Altitude
468.486 km
Speed
7.632 km/s
True Right ascension
01h 33m 34s
True Declination
0° 00' 00"
Sunlit
Object was in daylight at epoch
Visualization orbit readout
Latitude
Unknown
Longitude
Unknown
Altitude
Unknown
Speed
Unknown
Apparent Right ascension
Unknown
Apparent Declination
Unknown
Sunlit
N/A
Visualization observer readout
Local Sidereal Time
12:58:56
Azimuth
Unknown
Elevation
Unknown
Doppler factor
Unknown
Orbital elements
Apogee altitude
463.433 km
Perigee altitude
461.541 km
Semi-major axis
6,840.624 km
Eccentricity
0.00014
Inclination
97.2845°
RAAN
23.3918°
Arg. of periapsis
79.7704°
True anomaly
280.35391°
Mean anomaly
280.3695°
Eccentric anomaly
280.36171°
Mean motion
3.83619 °/min
Orbital period
93.84 mins
BSTAR
0.00033775
Loading maneuver chart data...
Computing Atmospheric mass density...
Loading historical data...
Loading historical data...
Loading historical data...
Loading historical data...
Loading historical data...
Loading historical data...
Loading historical data...

Documentation

Showing up to 5 results
|